GW2569 Weather Reports


Display with metric or nautical units.
time (UTC)temp
F
wind
direction
speed
MPH
gust
MPH
rain 1hr
in
rain 24hr
in
rain mn
in
humidity
%
barometer
mb
20260906203113 93 355 2.0 10.0 0.00 0.33 0.00 75 1010.7
20260906202540 92 72 2.0 10.0 0.00 0.33 0.00 75 1010.8
20260906202040 92 77 2.0 9.0 0.00 0.33 0.00 76 1010.9
20260906201606 92 77 3.0 9.0 0.00 0.33 0.00 76 1011.0
20260906201038 92 56 1.0 9.0 0.00 0.33 0.00 77 1011.0
20260906200541 92 88 3.0 8.0 0.00 0.33 0.00 76 1011.1
20260906200059 93 41 1.0 11.0 0.00 0.33 0.00 77 1011.2
20260906195541 92 92 2.0 11.0 0.00 0.33 0.00 77 1011.3
20260906195040 92 0 4.0 11.0 0.00 0.33 0.00 78 1011.5
20260906194617 92 279 3.0 8.0 0.00 0.33 0.00 78 1011.6
20260906194040 91 279 2.0 7.0 0.00 0.33 0.00 78 1011.6
20260906193540 92 107 0.0 4.0 0.00 0.33 0.00 77 1011.7
20260906193108 92 67 1.0 4.0 0.00 0.33 0.00 78 1011.8
20260906192540 91 0 1.0 6.0 0.00 0.33 0.00 79 1011.8
20260906192043 91 0 2.0 8.0 0.00 0.33 0.00 79 1011.9
20260906191605 90 88 3.0 8.0 0.00 0.33 0.00 80 1011.9
20260906191045 90 123 1.0 5.0 0.00 0.33 0.00 80 1011.8
20260906190537 89 204 1.0 6.0 0.00 0.33 0.00 79 1011.9
20260906190106 90 244 2.0 6.0 0.00 0.33 0.00 80 1011.8
20260906185540 90 117 1.0 6.0 0.00 0.33 0.00 80 1011.9
20260906185040 89 294 2.0 7.0 0.00 0.33 0.00 80 1011.9
20260906184603 89 325 3.0 7.0 0.00 0.33 0.00 81 1011.9
20260906184040 89 309 1.0 6.0 0.00 0.33 0.00 81 1012.0
20260906183539 87 0 2.0 6.0 0.00 0.33 0.00 83 1012.1
20260906183116 88 175 2.0 5.0 0.00 0.33 0.00 82 1012.1
20260906182544 89 141 2.0 7.0 0.00 0.33 0.00 81 1012.4
20260906182043 88 66 3.0 8.0 0.00 0.33 0.00 82 1012.3
20260906181633 88 113 3.0 8.0 0.00 0.33 0.00 82 1012.4
20260906181040 88 157 1.0 5.0 0.00 0.33 0.00 82 1012.7
20260906180541 88 42 2.0 5.0 0.00 0.33 0.00 82 1012.7
20260906180110 87 239 1.0 6.0 0.00 0.33 0.00 83 1012.7
20260906175541 87 136 2.0 6.0 0.00 0.33 0.00 83 1012.8
20260906175038 88 115 2.0 6.0 0.00 0.33 0.00 83 1012.8
20260906174601 87 0 2.0 6.0 0.00 0.33 0.00 83 1013.0
20260906174044 86 93 1.0 6.0 0.00 0.33 0.00 84 1013.0
20260906173540 86 126 0.0 4.0 0.00 0.33 0.00 85 1013.0
20260906173101 86 171 0.0 4.0 0.00 0.33 0.00 84 1013.2
20260906172540 85 0 2.0 4.0 0.00 0.33 0.00 85 1013.3
20260906172042 85 331 0.0 5.0 0.00 0.33 0.00 86 1013.4
20260906171608 85 275 1.0 6.0 0.00 0.33 0.00 86 1013.5
20260906171040 85 174 3.0 7.0 0.00 0.33 0.00 85 1013.7
20260906170542 85 134 2.0 7.0 0.00 0.33 0.00 85 1013.7
20260906170107 85 115 0.0 4.0 0.00 0.33 0.00 85 1013.7
20260906165544 84 293 0.0 4.0 0.00 0.33 0.00 86 1013.8
20260906165037 83 95 1.0 7.0 0.00 0.33 0.00 87 1013.9
20260906164607 84 98 2.0 7.0 0.00 0.33 0.00 87 1014.0
20260906164040 83 123 2.0 8.0 0.00 0.33 0.00 87 1013.9
20260906163540 83 73 1.0 8.0 0.00 0.33 0.00 87 1014.0
20260906163104 84 117 2.0 7.0 0.00 0.33 0.00 87 1014.0
20260906162540 83 80 2.0 8.0 0.00 0.33 0.00 87 1014.0
20260906162038 84 116 3.0 8.0 0.00 0.33 0.00 86 1014.0
20260906161556 83 106 2.0 9.0 0.00 0.33 0.00 89 1014.0
20260906161043 82 53 4.0 9.0 0.00 0.33 0.00 89 1014.0
20260906160540 82 105 4.0 9.0 0.00 0.33 0.00 89 1014.0
20260906160056 82 109 3.0 9.0 0.00 0.33 0.00 89 1014.0
20260906155540 82 96 4.0 9.0 0.00 0.33 0.00 89 1014.0
20260906155040 82 62 2.0 6.0 0.00 0.33 0.00 89 1014.0
20260906154605 82 101 0.0 6.0 0.00 0.33 0.00 88 1014.2
20260906154040 83 67 2.0 6.0 0.00 0.33 0.00 88 1014.1
20260906153540 83 23 1.0 5.0 0.00 0.33 0.00 88 1014.1
20260906153058 83 0 0.0 7.0 0.00 0.33 0.00 89 1014.0
20260906152543 83 142 4.0 7.0 0.00 0.33 0.00 87 1013.9
20260906152040 83 73 2.0 8.0 0.00 0.33 0.00 88 1013.9
20260906151603 83 90 3.0 8.0 0.00 0.33 0.00 88 1013.9
20260906151040 83 98 3.0 8.0 0.00 0.33 0.00 88 1014.0
20260906150537 83 173 2.0 8.0 0.00 0.33 0.00 88 1014.0
20260906150108 82 99 3.0 7.0 0.00 0.33 0.00 89 1014.0
20260906145539 81 114 1.0 7.0 0.00 0.33 0.00 90 1014.0
20260906145042 81 184 2.0 7.0 0.00 0.33 0.00 91 1014.0
20260906144611 80 52 2.0 6.0 0.00 0.33 0.00 90 1013.9
20260906144040 80 113 2.0 6.0 0.00 0.33 0.00 90 1013.9
20260906143540 81 115 2.0 7.0 0.00 0.33 0.00 90 1013.8
20260906143108 81 0 2.0 8.0 0.00 0.33 0.00 90 1013.9
20260906142538 81 96 3.0 8.0 0.00 0.33 0.00 90 1014.0
20260906142041 81 51 2.0 8.0 0.00 0.33 0.00 91 1014.0
20260906141554 80 90 2.0 7.0 0.00 0.33 0.00 92 1014.0
20260906141037 80 88 1.0 7.0 0.00 0.33 0.00 92 1013.9
20260906140540 80 101 0.0 5.0 0.00 0.33 0.00 93 1013.9
20260906140059 79 0 1.0 5.0 0.00 0.33 0.00 93 1013.9
20260906135540 79 309 2.0 4.0 0.00 0.33 0.00 93 1013.9
20260906135039 79 336 1.0 4.0 0.00 0.33 0.00 94 1013.8
20260906134556 78 350 1.0 4.0 0.00 0.33 0.00 95 1013.8
20260906134040 78 5 2.0 6.0 0.00 0.33 0.00 95 1013.7
20260906133540 78 319 1.0 6.0 0.00 0.33 0.00 95 1013.6
20260906133122 77 314 3.0 6.0 0.00 0.33 0.00 95 1013.5
20260906132538 77 314 1.0 6.0 0.00 0.33 0.00 96 1013.5
20260906132038 77 315 1.0 5.0 0.00 0.33 0.00 96 1013.4
20260906131603 77 38 1.0 6.0 0.00 0.33 0.00 96 1013.3
20260906131040 77 320 2.0 7.0 0.00 0.33 0.00 96 1013.2
20260906130540 77 328 4.0 8.0 0.00 0.33 0.00 96 1013.3
20260906130107 77 347 3.0 8.0 0.00 0.33 0.00 96 1013.2
20260906125541 77 311 3.0 7.0 0.00 0.33 0.00 96 1013.2
20260906125037 77 315 3.0 7.0 0.00 0.33 0.00 96 1013.2
20260906124556 77 338 4.0 7.0 0.00 0.33 0.00 96 1013.2
20260906124040 77 327 3.0 5.0 0.00 0.33 0.00 96 1013.1
20260906123540 77 315 2.0 5.0 0.00 0.33 0.00 96 1013.0
20260906123056 77 335 2.0 7.0 0.00 0.33 0.00 96 1013.1
20260906122540 77 5 2.0 7.0 0.00 0.33 0.00 96 1012.9
20260906122037 77 315 3.0 6.0 0.00 0.33 0.00 96 1012.9
20260906121559 77 306 2.0 7.0 0.00 0.33 0.00 96 1012.9
20260906121038 77 287 3.0 7.0 0.00 0.33 0.00 95 1012.7
20260906120543 77 244 3.0 7.0 0.00 0.33 0.00 96 1012.7
20260906120100 77 318 2.0 5.0 0.00 0.33 0.00 95 1012.5
20260906115540 78 309 2.0 4.0 0.00 0.33 0.00 96 1012.4
20260906115037 77 328 0.0 2.0 0.00 0.33 0.00 95 1012.3
20260906114601 77 0 0.0 3.0 0.00 0.33 0.00 95 1012.3
20260906114040 77 0 0.0 3.0 0.00 0.33 0.00 95 1012.2
20260906113540 77 286 1.0 3.0 0.00 0.33 0.00 95 1012.1
20260906113109 77 288 1.0 4.0 0.00 0.33 0.00 95 1012.2
20260906112540 77 288 2.0 4.0 0.00 0.33 0.00 95 1012.1
20260906112040 77 0 0.0 2.0 0.00 0.33 0.00 95 1012.0
20260906111601 77 0 0.0 0.0 0.00 0.33 0.00 95 1011.9
20260906111040 77 0 0.0 1.0 0.00 0.33 0.00 95 1011.8
20260906110540 77 0 0.0 3.0 0.00 0.33 0.00 95 1011.8
20260906110057 77 0 0.0 3.0 0.00 0.33 0.00 95 1011.6
20260906105541 77 0 0.0 3.0 0.00 0.33 0.00 95 1011.6
20260906105039 77 192 0.0 4.0 0.00 0.33 0.00 96 1011.6
20260906104607 77 0 0.0 4.0 0.00 0.33 0.00 96 1011.5
20260906104044 77 177 1.0 4.0 0.00 0.33 0.00 96 1011.4
20260906103540 77 0 0.0 5.0 0.00 0.33 0.00 96 1011.3
20260906103100 77 0 0.0 5.0 0.00 0.33 0.00 96 1011.3
20260906102540 77 175 2.0 5.0 0.00 0.33 0.00 96 1011.1
20260906102040 77 194 1.0 4.0 0.00 0.33 0.00 96 1011.1
20260906101557 77 92 1.0 4.0 0.00 0.33 0.00 96 1011.1
20260906101039 77 0 0.0 3.0 0.00 0.33 0.00 96 1011.2
20260906100544 76 0 0.0 3.0 0.00 0.33 0.00 96 1011.1
20260906100105 77 0 0.0 3.0 0.00 0.33 0.00 96 1011.2
20260906095543 76 0 0.0 1.0 0.00 0.33 0.00 96 1011.2
20260906095040 77 0 0.0 3.0 0.00 0.33 0.00 96 1011.3
20260906094615 76 0 0.0 4.0 0.00 0.33 0.00 96 1011.4
20260906094040 76 0 0.0 4.0 0.00 0.33 0.00 96 1011.5
20260906093540 76 108 1.0 4.0 0.00 0.33 0.00 96 1011.5
20260906093130 76 194 0.0 0.0 0.00 0.33 0.00 96 1011.5
20260906092539 76 0 0.0 1.0 0.00 0.33 0.00 96 1011.4
20260906092040 76 0 0.0 3.0 0.00 0.33 0.00 96 1011.4
20260906091612 76 0 1.0 5.0 0.00 0.33 0.00 96 1011.4
20260906091037 76 117 1.0 5.0 0.00 0.33 0.00 96 1011.5
20260906090540 76 0 0.0 4.0 0.00 0.33 0.00 96 1011.4
20260906090104 76 0 0.0 5.0 0.00 0.33 0.00 96 1011.5
20260906085538 76 147 2.0 5.0 0.00 0.33 0.00 96 1011.5
20260906085040 76 161 1.0 5.0 0.00 0.33 0.00 96 1011.5
20260906084604 76 144 1.0 5.0 0.00 0.33 0.00 96 1011.5
20260906084040 76 109 2.0 6.0 0.00 0.33 0.00 96 1011.5
20260906083542 76 192 1.0 6.0 0.00 0.33 0.00 96 1011.5
20260906083058 76 158 3.0 6.0 0.00 0.33 0.00 96 1011.5
20260906082538 76 202 3.0 6.0 0.00 0.33 0.00 96 1011.5
20260906082040 76 158 2.0 6.0 0.00 0.33 0.00 96 1011.5
20260906081557 76 142 3.0 6.0 0.00 0.33 0.00 96 1011.6
20260906081040 76 153 2.0 6.0 0.00 0.33 0.00 96 1011.6
20260906080540 76 0 2.0 6.0 0.00 0.33 0.00 96 1011.6
20260906080105 76 175 2.0 7.0 0.00 0.33 0.00 97 1011.7
20260906075538 76 0 3.0 7.0 0.00 0.33 0.00 97 1011.8
20260906075038 76 157 2.0 7.0 0.00 0.33 0.00 97 1011.9
20260906074603 76 142 1.0 7.0 0.00 0.33 0.00 97 1012.0
20260906074039 76 121 2.0 7.0 0.00 0.33 0.00 97 1012.3
20260906073540 76 146 1.0 5.0 0.00 0.33 0.00 97 1012.3
20260906073101 76 96 1.0 7.0 0.00 0.33 0.00 97 1012.4
20260906072540 76 138 2.0 7.0 0.00 0.33 0.00 97 1012.5
20260906072040 76 123 0.0 3.0 0.00 0.33 0.00 97 1012.6
20260906071600 76 131 0.0 4.0 0.00 0.33 0.00 97 1012.6
20260906071040 76 0 1.0 4.0 0.00 0.33 0.00 97 1012.7
20260906070540 76 0 0.0 6.0 0.00 0.33 0.00 97 1012.8
20260906070105 76 111 2.0 8.0 0.00 0.33 0.00 97 1013.0
20260906065540 76 107 3.0 8.0 0.00 0.37 0.00 97 1013.1
20260906065039 76 113 2.0 8.0 0.00 0.37 0.00 97 1013.0
20260906064558 76 134 3.0 9.0 0.00 0.37 0.00 97 1013.2
20260906064039 76 105 4.0 9.0 0.00 0.37 0.00 97 1013.3
20260906063539 76 71 4.0 9.0 0.00 0.37 0.00 97 1013.4
20260906063058 76 117 2.0 10.0 0.00 0.37 0.00 97 1013.5
20260906062540 76 95 5.0 10.0 0.00 0.37 0.00 97 1013.5
20260906062040 76 96 5.0 10.0 0.00 0.37 0.00 97 1013.4
20260906061609 76 101 4.0 9.0 0.00 0.37 0.00 98 1013.4
20260906061038 76 92 4.0 9.0 0.00 0.37 0.00 98 1013.5
20260906060540 76 93 3.0 10.0 0.00 0.37 0.00 98 1013.5
20260906060054 76 102 3.0 10.0 0.00 0.37 0.00 98 1013.4
20260906055543 76 101 4.0 10.0 0.00 1.16 0.37 98 1013.3
20260906055039 76 59 4.0 10.0 0.00 1.16 0.37 98 1013.2
20260906054608 76 90 3.0 10.0 0.01 1.16 0.37 98 1013.1
20260906054040 76 71 3.0 10.0 0.01 1.16 0.37 98 1013.0
20260906053539 76 75 3.0 10.0 0.01 1.16 0.37 98 1013.0
20260906053053 76 111 4.0 10.0 0.02 1.16 0.37 98 1012.9
20260906052540 76 82 4.0 9.0 0.02 1.16 0.37 97 1012.9
20260906052044 76 94 5.0 10.0 0.02 1.16 0.37 97 1013.1
20260906051606 76 70 5.0 10.0 0.02 1.16 0.37 97 1013.0
20260906051040 76 137 4.0 9.0 0.02 1.16 0.37 97 1013.0
20260906050539 76 92 3.0 9.0 0.02 1.16 0.37 96 1013.0
20260906050107 76 84 2.0 6.0 0.02 1.16 0.37 96 1013.2
20260906045540 76 91 1.0 6.0 0.02 1.16 0.37 96 1013.1
20260906045039 76 122 3.0 8.0 0.02 1.16 0.37 96 1013.0
20260906044600 77 113 2.0 8.0 0.01 1.15 0.36 96 1013.0
20260906044039 77 114 3.0 7.0 0.01 1.15 0.36 96 1013.0
20260906043542 77 101 3.0 6.0 0.01 1.15 0.36 95 1013.0
20260906043103 77 124 1.0 4.0 0.00 1.14 0.35 96 1013.1
20260906042540 77 150 1.0 4.0 0.00 1.14 0.35 96 1013.3
20260906042040 76 156 1.0 6.0 0.00 1.14 0.35 96 1013.2
20260906041556 76 181 2.0 7.0 0.00 1.14 0.35 96 1013.2
20260906041040 76 119 3.0 7.0 0.00 1.14 0.35 96 1013.2
20260906040539 76 120 2.0 7.0 0.02 1.14 0.35 95 1013.3
20260906040105 76 118 3.0 8.0 0.13 1.14 0.35 96 1013.5
20260906035541 76 118 3.0 8.0 0.19 1.14 0.35 95 1013.5
20260906035040 76 75 3.0 7.0 0.21 1.14 0.35 95 1013.5
20260906034554 76 128 2.0 11.0 0.21 1.14 0.35 95 1013.6
20260906034040 76 0 3.0 12.0 0.21 1.14 0.35 95 1013.6
20260906033539 76 118 5.0 12.0 0.21 1.14 0.35 95 1013.6
20260906033103 75 104 6.0 12.0 0.21 1.14 0.35 95 1013.3
20260906032539 75 105 5.0 16.0 0.21 1.14 0.35 95 1013.3
20260906032040 75 69 6.0 16.0 0.21 1.14 0.35 95 1013.3
20260906031557 75 53 7.0 16.0 0.22 1.14 0.35 95 1013.3
20260906031041 75 55 5.0 14.0 0.22 1.14 0.35 94 1013.3
20260906030540 76 71 7.0 14.0 0.19 1.11 0.32 93 1013.0
20260906025539 76 80 7.0 13.0 0.02 0.94 0.15 92 1013.1
20260906025040 77 85 7.0 15.0 0.01 0.93 0.14 91 1013.4
20260906024604 77 78 6.0 15.0 0.01 0.93 0.14 91 1013.5
20260906024040 78 352 5.0 16.0 0.01 0.93 0.14 91 1013.5
20260906023538 78 89 8.0 18.0 0.10 0.93 0.14 90 1013.5
20260906023056 79 63 7.0 18.0 0.10 0.93 0.14 90 1013.4
20260906022539 79 66 3.0 15.0 0.10 0.93 0.14 89 1013.3
20260906022040 79 61 4.0 15.0 0.10 0.93 0.14 89 1012.6
20260906021557 79 0 0.0 5.0 0.09 0.92 0.13 90 1012.0
20260906021040 79 0 0.0 10.0 0.09 0.92 0.13 90 1012.1
20260906020540 79 55 1.0 10.0 0.09 0.92 0.13 90 1011.7
20260906020104 80 313 4.0 12.0 0.09 0.92 0.13 89 1011.6
20260906015540 80 76 5.0 12.0 0.09 0.92 0.13 88 1011.6
20260906015040 81 65 5.0 10.0 0.09 0.92 0.13 86 1011.9
20260906014643 81 109 4.0 10.0 0.09 0.92 0.13 86 1011.8
20260906014039 82 149 4.0 9.0 0.08 0.91 0.12 85 1011.8
20260906013540 83 178 5.0 11.0 0.00 0.83 0.04 82 1011.8
20260906013101 84 97 4.0 25.0 0.00 0.83 0.04 81 1011.7
20260906012540 85 200 6.0 25.0 0.00 0.83 0.04 82 1011.7
20260906012042 87 144 5.0 11.0 0.00 0.83 0.04 87 1011.7
20260906011603 87 355 1.0 7.0 0.00 0.83 0.04 88 1010.8
20260906011040 87 0 2.0 9.0 0.00 0.83 0.04 88 1010.6
20260906010539 87 5 3.0 12.0 0.00 0.83 0.04 88 1010.5
20260906010105 88 290 3.0 12.0 0.00 0.83 0.04 87 1010.0
20260906005540 88 340 3.0 12.0 0.00 0.83 0.04 87 1010.2
20260906005040 88 5 5.0 12.0 0.00 0.83 0.04 87 1010.1
20260906004612 88 11 3.0 10.0 0.00 0.83 0.04 87 1010.2
20260906004041 88 0 3.0 11.0 0.00 0.83 0.04 86 1010.1
20260906003540 88 24 2.0 11.0 0.00 0.83 0.04 86 1010.2
20260906003114 88 341 4.0 11.0 0.00 0.83 0.04 86 1010.0
20260906002540 89 0 4.0 11.0 0.00 0.83 0.04 85 1009.9
20260906002040 89 317 3.0 11.0 0.00 0.83 0.04 85 1009.9
20260906001556 89 322 3.0 10.0 0.00 0.83 0.04 85 1009.9
20260906001039 89 0 3.0 13.0 0.00 0.83 0.04 85 1010.0
20260906000541 89 316 6.0 13.0 0.00 0.83 0.04 84 1009.9
20260906000105 90 319 4.0 9.0 0.00 0.83 0.04 84 1009.9
20260905235542 90 317 2.0 12.0 0.00 0.83 0.04 84 1009.8
20260905235040 90 352 4.0 13.0 0.00 0.83 0.04 84 1009.6
20260905234611 90 315 8.0 13.0 0.00 0.83 0.04 83 1009.4
20260905234039 90 306 8.0 13.0 0.00 0.83 0.04 82 1009.5
20260905233539 91 360 6.0 12.0 0.00 0.83 0.04 82 1009.6
20260905233057 91 5 7.0 13.0 0.00 0.83 0.04 81 1009.5
20260905232539 92 304 8.0 13.0 0.00 0.83 0.04 81 1009.4
20260905232039 93 313 7.0 13.0 0.00 0.83 0.04 80 1009.4
20260905231557 93 329 4.0 11.0 0.00 0.83 0.04 79 1009.4
20260905231039 94 316 2.0 11.0 0.00 0.83 0.04 78 1009.5
20260905230540 96 272 3.0 11.0 0.00 0.83 0.04 74 1009.6
20260905230110 96 5 7.0 11.0 0.00 0.83 0.04 70 1009.5
20260905225538 96 101 4.0 11.0 0.00 0.83 0.04 69 1009.5
20260905225038 96 44 4.0 11.0 0.00 0.83 0.04 70 1009.4
20260905224613 96 57 4.0 12.0 0.00 0.83 0.04 70 1009.4
20260905224040 96 70 5.0 12.0 0.00 0.83 0.04 69 1009.2
20260905223539 96 83 5.0 11.0 0.00 0.83 0.04 70 1009.3
20260905223058 96 63 5.0 12.0 0.00 0.83 0.04 70 1009.3
20260905222540 96 103 6.0 13.0 0.00 0.83 0.04 69 1009.3
20260905222039 96 71 7.0 13.0 0.00 0.83 0.04 69 1009.3
20260905221611 96 47 5.0 13.0 0.00 0.83 0.04 70 1009.2
20260905221040 97 94 4.0 10.0 0.00 0.83 0.04 70 1009.2
20260905220538 96 85 6.0 14.0 0.00 0.83 0.04 70 1009.3
20260905220106 96 94 6.0 14.0 0.00 0.83 0.04 71 1009.4
20260905215539 96 40 6.0 13.0 0.00 0.83 0.04 71 1009.4
20260905215039 96 107 3.0 13.0 0.00 0.83 0.04 72 1009.3
20260905214602 96 95 8.0 13.0 0.00 0.83 0.04 73 1009.4
20260905214040 96 96 5.0 11.0 0.00 0.83 0.04 72 1009.4
20260905213540 96 88 5.0 11.0 0.00 0.83 0.04 72 1009.5
20260905213103 96 62 6.0 12.0 0.00 0.83 0.04 72 1009.6
20260905212540 96 105 6.0 13.0 0.00 0.83 0.04 72 1009.6
20260905212039 96 117 7.0 14.0 0.00 0.83 0.04 73 1009.7
20260905211602 95 74 6.0 14.0 0.00 0.83 0.04 73 1009.7
20260905211040 96 87 6.0 14.0 0.00 0.83 0.04 74 1009.7
20260905210540 96 93 6.0 13.0 0.00 0.83 0.04 73 1009.8
20260905210058 96 63 6.0 13.0 0.00 0.83 0.04 73 1009.8
20260905205538 95 83 4.0 13.0 0.00 0.83 0.04 75 1009.9
20260905205040 95 109 4.0 13.0 0.00 0.83 0.04 75 1010.0
20260905204554 96 131 4.0 13.0 0.00 0.83 0.04 74 1010.0
20260905204040 96 109 2.0 13.0 0.00 0.83 0.04 74 1010.0
20260905203540 95 55 2.0 13.0 0.00 0.83 0.04 73 1010.1